Location: Bremen
(53.0793°N, 8.8017°E)
Time: 09:20:46
(UTC+01:00)

Transit 2A Rocket - Visible Passes

Search period start: 03 December 2021 00:00
Search period end: 13 December 2021 00:00
Orbit: 584 x 918 km, 66.7° (Epoch: 02 December)

Date Brightness Start Highest point End Pass type
(mag) Time Alt. Az. Time Alt. Az. Time Alt. Az.
03 Dec 6.0 16:45:02 10° NW 16:51:06 63° WSW 16:56:50 10° SSE visible
03 Dec 8.5 18:29:33 10° WNW 18:32:35 14° WSW 18:35:32 10° SW visible
04 Dec 7.5 07:25:11 10° S 07:30:10 31° ESE 07:35:26 10° NE visible
04 Dec 8.0 17:45:51 10° WNW 17:50:22 22° WSW 17:54:42 10° SSW visible
05 Dec 8.1 06:43:40 10° SSE 06:47:51 21° ESE 06:52:12 10° ENE visible
05 Dec 7.3 17:02:40 10° NW 17:08:01 33° WSW 17:13:08 10° S visible
06 Dec 8.6 06:03:00 10° SE 06:05:39 13° E 06:08:21 10° ENE visible
06 Dec 6.1 07:41:23 10° SSW 07:47:04 60° ESE 07:53:05 10° NE visible
06 Dec 9.0 18:06:21 10° W 18:06:46 10° W 18:07:11 10° WSW visible
07 Dec 6.8 06:59:11 10° S 07:04:33 41° ESE 07:10:12 10° NE visible
07 Dec 8.4 17:20:59 10° WNW 17:24:37 17° WSW 17:28:09 10° SW visible
08 Dec 7.5 06:17:22 10° SSE 06:22:10 27° ESE 06:27:10 10° NE visible
09 Dec 8.1 05:36:05 10° SE 05:39:52 18° ESE 05:43:47 10° ENE visible
09 Dec 5.6 07:15:44 10° SSW 07:21:34 76° SE 07:27:43 10° NE visible
10 Dec 8.4 04:56:06 10° ESE 04:57:43 11° E 04:59:20 10° E visible
10 Dec 6.2 06:33:21 10° SSW 06:38:59 52° ESE 06:44:55 10° NE visible
10 Dec 8.5 16:56:36 10° WNW 16:58:50 12° W 17:01:01 10° WSW visible
11 Dec 6.9 05:51:17 10° S 05:56:30 35° ESE 06:01:59 10° NE visible
11 Dec 5.4 07:33:02 10° SW 07:38:54 65° NW 07:45:03 10° NE visible
12 Dec 7.5 05:09:37 10° SSE 05:14:08 24° ESE 05:18:51 10° ENE visible
12 Dec 5.3 06:50:13 10° SW 06:56:08 88° NW 07:02:19 10° NE visible
